Weather History for Ely, MN

Change the Weather History Date:

Saturday, September 8, 2012

  Actual Average Record
Temperature  
Mean Temperature 50 °F -  
Max Temperature 57 °F 68 °F 89 °F (2002)
Min Temperature 42 °F 47 °F 35 °F (1998)
Degree Days  
Heating Degree Days 16    
Moisture  
Dew Point 47 °F    
Average Humidity 89    
Maximum Humidity 100    
Minimum Humidity 72    
Precipitation  
Precipitation 0.12 in - - ()
Sea Level Pressure  
Sea Level Pressure 29.86 in    
Wind  
Wind Speed 6 mph (WNW)    
Max Wind Speed 12 mph    
Max Gust Speed 21 mph    
Visibility 9 miles    
Events Fog , Rain    
Averages and records for this station are not official NWS values.
T = Trace of Precipitation, MM = Missing Value Source: NWS Daily Summary

Daily Weather History Graph

Daily Weather History Graph

Search for Another Location

Airport:

Trip Planner

Search our weather history database for the weather conditions in past years. The results will help you decide how hot, cold, wet, or windy it might be!

Date:

Astronomy

Sep. 08, 2012 Rise Set
Actual Time 6:35 AM CDT 7:32 PM CDT
Civil Twilight 6:04 AM CDT 8:04 PM CDT
Nautical Twilight 5:26 AM CDT 8:41 PM CDT
Astronomical Twilight 4:46 AM CDT 9:21 PM CDT
Moon 11:46 PM CDT (9/8) 2:50 PM CDT (9/8)
Length of Visible Light 14h 00m
Length of Day
12h 57m
Waning Gibbous, 48% of the Moon is Illuminated
Sep 8
Waning Gibbous
Sep 15
New
Sep 22
First Quarter
Sep 29
Full
Oct 8
Last Quarter

Hourly Weather History & Observations

Time (CDT) Temp. Windchill Dew Point Humidity Pressure Visibility Wind Dir Wind Speed Gust Speed Precip Events Conditions
12:13 AM 48.2 °F - 44.6 °F 87% 29.94 in 10.0 mi WNW 6.9 mph - N/A   Clear
12:32 AM 48.2 °F - 44.6 °F 87% 29.93 in 10.0 mi WNW 5.8 mph - N/A   Clear
12:53 AM 46.4 °F - 44.6 °F 93% 29.93 in 10.0 mi Calm Calm - N/A   Clear
1:12 AM 46.4 °F - 42.8 °F 87% 29.93 in 10.0 mi Calm Calm - N/A   Clear
1:33 AM 44.6 °F 42.2 °F 42.8 °F 93% 29.93 in 10.0 mi West 4.6 mph - N/A   Clear
1:53 AM 44.6 °F 41.4 °F 42.8 °F 93% 29.94 in 10.0 mi WNW 5.8 mph - N/A   Clear
2:13 AM 44.6 °F 42.2 °F 44.6 °F 100% 29.93 in 10.0 mi WNW 4.6 mph - N/A   Clear
2:33 AM 44.6 °F 43.1 °F 44.6 °F 100% 29.92 in 10.0 mi West 3.5 mph - N/A   Clear
2:52 AM 44.6 °F 42.2 °F 42.8 °F 93% 29.92 in 10.0 mi West 4.6 mph - N/A   Clear
3:13 AM 44.6 °F 43.1 °F 42.8 °F 93% 29.91 in 10.0 mi West 3.5 mph - N/A   Clear
3:33 AM 42.8 °F 41.1 °F 42.8 °F 100% 29.91 in 10.0 mi West 3.5 mph - N/A   Clear
3:52 AM 42.8 °F - 42.8 °F 100% 29.90 in 10.0 mi Calm Calm - N/A   Clear
4:13 AM 44.6 °F 42.2 °F 42.8 °F 93% 29.89 in 10.0 mi SW 4.6 mph - N/A   Clear
4:33 AM 44.6 °F 42.2 °F 44.6 °F 100% 29.89 in 0.5 mi SSW 4.6 mph - N/A Fog Fog
4:52 AM 44.6 °F 42.2 °F 44.6 °F 100% 29.89 in 0.5 mi WSW 4.6 mph - N/A Fog Fog
5:13 AM 46.4 °F 44.3 °F 46.4 °F 100% 29.88 in 0.5 mi WSW 4.6 mph - N/A Fog Fog
5:33 AM 46.4 °F 44.3 °F 46.4 °F 100% 29.88 in 0.8 mi WSW 4.6 mph - N/A   Overcast
5:52 AM 46.4 °F 43.5 °F 46.4 °F 100% 29.87 in 1.5 mi SW 5.8 mph - N/A   Overcast
6:13 AM 46.4 °F 44.3 °F 46.4 °F 100% 29.86 in 10.0 mi SSW 4.6 mph - N/A   Overcast
6:33 AM 44.6 °F 41.4 °F 44.6 °F 100% 29.85 in 10.0 mi SSW 5.8 mph - N/A   Overcast
6:52 AM 44.6 °F 42.2 °F 42.8 °F 93% 29.85 in 7.0 mi SSW 4.6 mph - N/A   Overcast
7:13 AM 44.6 °F 41.4 °F 44.6 °F 100% 29.84 in 10.0 mi SW 5.8 mph - N/A   Mostly Cloudy
7:33 AM 44.6 °F 41.4 °F 44.6 °F 100% 29.83 in 10.0 mi South 5.8 mph - N/A   Scattered Clouds
7:52 AM 44.6 °F 41.4 °F 44.6 °F 100% 29.81 in 10.0 mi SSW 5.8 mph - N/A   Mostly Cloudy
8:13 AM 46.4 °F 44.3 °F 46.4 °F 100% 29.80 in 10.0 mi SW 4.6 mph - N/A   Scattered Clouds
8:33 AM 48.2 °F - 46.4 °F 93% 29.79 in 10.0 mi WSW 4.6 mph - N/A   Clear
8:52 AM 51.8 °F - 46.4 °F 82% 29.77 in 10.0 mi SW 5.8 mph - N/A   Clear
9:13 AM 53.6 °F - 46.4 °F 77% 29.76 in 10.0 mi SW 9.2 mph - N/A   Scattered Clouds
9:33 AM 51.8 °F - 46.4 °F 82% 29.77 in 10.0 mi West 4.6 mph - N/A Rain Light Rain
9:53 AM 50.0 °F - 46.4 °F 87% 29.80 in 10.0 mi NW 3.5 mph - 0.01 in Rain Rain
10:13 AM 48.2 °F - 46.4 °F 93% 29.77 in 5.0 mi South 6.9 mph - 0.08 in Rain Heavy Rain
10:33 AM 50.0 °F - 48.2 °F 94% 29.75 in 10.0 mi South 3.5 mph - 0.10 in Rain Rain
10:52 AM 51.8 °F - 48.2 °F 88% 29.74 in 10.0 mi South 4.6 mph - 0.11 in   Mostly Cloudy
11:13 AM 51.8 °F - 50.0 °F 94% 29.74 in 10.0 mi SW 8.1 mph - N/A   Mostly Cloudy
11:32 AM 51.8 °F - 48.2 °F 88% 29.75 in 10.0 mi West 8.1 mph - N/A   Overcast
11:53 AM 51.8 °F - 48.2 °F 88% 29.75 in 10.0 mi West 8.1 mph - N/A   Overcast
12:13 PM 51.8 °F - 48.2 °F 88% 29.75 in 10.0 mi WNW 9.2 mph 16.1 mph N/A   Overcast
12:32 PM 50.0 °F - 48.2 °F 94% 29.76 in 2.0 mi WNW 5.8 mph - N/A Rain Light Rain
12:53 PM 51.8 °F - 48.2 °F 88% 29.76 in 7.0 mi WNW 9.2 mph - N/A Rain Light Rain
1:13 PM 53.6 °F - 50.0 °F 88% 29.77 in 10.0 mi NW 10.4 mph - N/A   Mostly Cloudy
1:32 PM 55.4 °F - 50.0 °F 82% 29.77 in 10.0 mi WNW 10.4 mph 18.4 mph N/A   Mostly Cloudy
1:53 PM 55.4 °F - 50.0 °F 82% 29.78 in 10.0 mi NNW 8.1 mph - N/A   Overcast
2:13 PM 57.2 °F - 48.2 °F 72% 29.78 in 10.0 mi NW 6.9 mph - N/A   Mostly Cloudy
2:32 PM 57.2 °F - 48.2 °F 72% 29.78 in 10.0 mi NNW 9.2 mph - N/A   Overcast
2:53 PM 55.4 °F - 50.0 °F 82% 29.79 in 10.0 mi NW 10.4 mph 16.1 mph N/A Rain Light Rain
3:13 PM 55.4 °F - 48.2 °F 77% 29.80 in 10.0 mi NW 11.5 mph 20.7 mph N/A   Overcast
3:32 PM 55.4 °F - 48.2 °F 77% 29.80 in 10.0 mi NNW 10.4 mph 18.4 mph N/A   Overcast
3:53 PM 57.2 °F - 50.0 °F 77% 29.81 in 10.0 mi NNW 4.6 mph - N/A   Scattered Clouds
4:13 PM 57.2 °F - 50.0 °F 77% 29.82 in 10.0 mi NW 10.4 mph - N/A   Mostly Cloudy
4:32 PM 57.2 °F - 50.0 °F 77% 29.83 in 10.0 mi NW 10.4 mph 20.7 mph N/A   Mostly Cloudy
4:53 PM 57.2 °F - 48.2 °F 72% 29.83 in 7.0 mi NNW 10.4 mph 20.7 mph N/A   Overcast
5:13 PM 55.4 °F - 50.0 °F 82% 29.85 in 10.0 mi North 5.8 mph - N/A   Overcast
5:32 PM 55.4 °F - 48.2 °F 77% 29.86 in 10.0 mi NNW 11.5 mph 18.4 mph N/A   Overcast
5:53 PM 55.4 °F - 51.8 °F 88% 29.87 in 7.0 mi NW 6.9 mph - N/A Rain Rain
6:12 PM 55.4 °F - 50.0 °F 82% 29.88 in 10.0 mi NNW 9.2 mph - N/A   Overcast
6:33 PM 55.4 °F - 50.0 °F 82% 29.89 in 10.0 mi NNW 9.2 mph 16.1 mph N/A   Overcast
6:53 PM 55.4 °F - 50.0 °F 82% 29.89 in 10.0 mi North 3.5 mph - N/A   Scattered Clouds
7:12 PM 55.4 °F - 50.0 °F 82% 29.90 in 10.0 mi NW 4.6 mph - N/A   Scattered Clouds
7:33 PM 55.4 °F - 51.8 °F 88% 29.91 in 10.0 mi NNW 4.6 mph - N/A   Mostly Cloudy
7:53 PM 53.6 °F - 51.8 °F 94% 29.92 in 10.0 mi NW 6.9 mph - N/A   Mostly Cloudy
8:12 PM 53.6 °F - 50.0 °F 88% 29.93 in 10.0 mi WNW 3.5 mph - N/A   Scattered Clouds
8:33 PM 51.8 °F - 50.0 °F 94% 29.94 in 10.0 mi WNW 3.5 mph - N/A   Scattered Clouds
8:53 PM 51.8 °F - 50.0 °F 94% 29.95 in 10.0 mi WNW 5.8 mph - N/A   Scattered Clouds
9:12 PM 53.6 °F - 50.0 °F 88% 29.96 in 10.0 mi NNW 8.1 mph - N/A   Mostly Cloudy
9:33 PM 53.6 °F - 50.0 °F 88% 29.96 in 10.0 mi NW 5.8 mph - N/A   Scattered Clouds
9:53 PM 53.6 °F - 50.0 °F 88% 29.97 in 10.0 mi NW 3.5 mph - N/A   Scattered Clouds
10:12 PM 53.6 °F - 50.0 °F 88% 29.97 in 10.0 mi NW 5.8 mph - N/A   Scattered Clouds
10:33 PM 51.8 °F - 50.0 °F 94% 29.98 in 10.0 mi NW 5.8 mph - N/A   Scattered Clouds
10:53 PM 51.8 °F - 50.0 °F 94% 29.99 in 10.0 mi NW 4.6 mph - N/A   Clear
11:12 PM 51.8 °F - 50.0 °F 94% 29.99 in 10.0 mi NW 5.8 mph - N/A   Clear
11:38 PM 51.8 °F - 50.0 °F 94% 30.00 in 10.0 mi WNW 4.6 mph - N/A   Clear
11:52 PM 51.8 °F - 48.2 °F 88% 30.00 in 10.0 mi NW 4.6 mph - N/A   Clear